Location: Borovka
(49.7741°N, 14.5280°E)
Time: 03:00:21
(UTC+00:00)

ESTCUBE 1 - Pass Details

Date: 22 March 2026
Orbit: 620 x 631 km, 97.7° (Epoch: 13 April)

Event Time Altitude Azimuth Distance (km) Brightness Sun altitude
Exits shadow 19:20:28 48° 121° (ESE) 821 ? -19.9°
Maximum altitude 19:21:22 60° 72° (ENE) 722 ? -20.0°
Drops below altitude 10° 19:25:42 10° 353° (N) 2,022 ? -20.6°
Sets 19:27:56 0° 350° (N) 2,935 ? -20.9°
